[[[{"header":{"parameterUnit":"kt","parameterCategory":2,"dx":1,"dy":1,"la1":30.253999710083008,"la2":30.299108505249023,"lo1":-89.0895004272461,"lo2":-89.04439544677734,"nx":28,"ny":28,"refTime":"2022-10-08T21:00:00:Z","depth":0,"parameterNumber":1,"parameterNumberName":"U-component_of_WINDS"},"data":[-4.4522,-4.4661,-4.4624,-4.4766,-4.4756,-4.4846,-4.4867,-4.4889,-4.4897,-4.5,-4.5053,-4.5029,-4.5022,-4.5075,-4.513,-4.5118,-4.5146,-4.5222,-4.5196,-4.4886,-4.484,-4.4797,-4.4763,-4.5228,-4.5229,-4.5524,-4.5527,-4.5529,-4.4298,-4.429,-4.4354,-4.439,-4.4444,-4.4347,-4.4368,-4.442,-4.4504,-4.4514,-4.4564,-4.4651,-4.4716,-4.4681,-4.4737,-4.4801,-4.476,-4.482,-4.4816,-4.4817,-4.4483,-4.4447,-4.4852,-4.4852,-4.4852,-4.4852,-4.4852,-4.4852,-4.3881,-4.3966,-4.3966,-4.4034,-4.4042,-4.4066,-4.4141,-4.4109,-4.417,-4.4224,-4.4165,-4.4259,-4.4262,-4.4309,-4.4316,-4.4388,-4.4315,-4.4369,-4.4383,-4.4399,-4.4423,-4.4007,-4.4395,-4.4393,-4.4392,-4.4391,-4.439,0,-4.3565,-4.3528,-4.3586,-4.3634,-4.3681,-4.3714,-4.3737,-4.3782,-4.3688,-4.3743,-4.3819,-4.3857,-4.393,-4.3998,-4.4041,-4.4036,-4.3944,-4.3928,-4.3966,-4.3999,-4.4022,-4.4015,-4.3475,-4.3918,-4.3914,-4.3911,-4.3909,-4.3907,-4.3145,-4.3248,-4.3228,-4.3274,-4.3277,-4.3353,-4.3389,-4.3299,-4.3343,-4.3358,-4.3437,-4.3502,-4.3551,-4.3679,-4.3641,-4.3696,-4.3653,-4.3826,-4.366,-4.3686,-4.366,-4.3656,-4.3667,-4.3862,-4.3868,-4.3873,-4.3877,0,-4.2913,-4.285,-4.2996,-4.2965,-4.2961,-4.3073,-4.3047,-4.3128,-4.3087,-4.3192,-4.3211,-4.3149,-4.3225,-4.3158,-4.3231,-4.3194,-4.338,-4.3333,-4.3379,-4.3367,-4.3519,-4.3507,-4.4016,-4.4079,-4.3591,-4.3596,-4.36,0,-4.2532,-4.2669,-4.2567,-4.2655,-4.2804,-4.271,-4.286,-4.284,-4.284,-4.2922,-4.2804,-4.2883,-4.2784,-4.2854,-4.2799,-4.2938,-4.2951,-4.2932,-4.2917,-4.2946,-4.2949,-4.2971,-4.2951,-4.2873,-4.2871,-4.2868,-4.2867,0,-4.2179,-4.2283,-4.2425,-4.2439,-4.242,-4.2489,-4.2485,-4.2484,-4.2521,-4.2558,-4.2581,-4.2631,-4.266,-4.27,-4.263,-4.252,-4.2797,-4.2632,-4.2778,-4.2781,-4.2847,-4.2845,-4.3307,-4.2863,-4.2863,-4.2862,-4.2861,0,-4.1862,-4.19,-4.2115,-4.2097,-4.2128,-4.2221,-4.2264,-4.2327,-4.2335,-4.2306,-4.2334,-4.2248,-4.2361,-4.2203,-4.2358,-4.2236,-4.2271,-4.2262,-4.2271,-4.2281,-4.2107,-4.2382,-4.2826,-4.2872,-4.2285,-4.228,-4.2276,0,-4.1476,-4.1675,-4.1595,-4.18,-4.1883,-4.1744,-4.1846,-4.1855,-4.1825,-4.1891,-4.1856,-4.1932,-4.1799,-4.1814,-4.1899,-4.1868,-4.2027,-4.1844,-4.1944,-4.1949,-4.1951,-4.2357,-4.2443,-4.2735,-4.2214,-4.222,-4.2225,0,-4.117,-4.1145,-4.1188,-4.12,-4.1197,-4.1265,-4.1381,-4.1435,-4.1483,-4.1506,-4.1603,-4.1705,-4.161,-4.1636,-4.1571,-4.1664,-4.1917,-4.1549,-4.1548,-4.1621,-4.2175,-4.2256,-4.2305,-4.1853,-4.186,-4.1866,-4.2175,0,-4.0713,-4.0802,-4.0912,-4.0943,-4.0984,-4.1108,-4.1035,-4.1088,-4.102,-4.0986,-4.1125,-4.1115,-4.1171,-4.1207,-4.1143,-4.1376,-4.1327,-4.1225,-4.1069,-4.1335,-4.1435,-4.1476,-4.0925,-4.092,-4.0916,-4.0912,0,0,-4.0362,-4.0489,-4.0397,-4.0506,-4.0536,-4.039,-4.053,-4.0541,-4.0569,-4.0593,-4.0504,-4.0651,-4.0647,-4.0825,-4.0901,-4.0923,-4.0959,-4.0869,-4.1208,-4.1241,-4.1272,-4.1381,-4.1424,-4.0905,-4.0903,-4.0902,-4.09,0,-4.0181,-4.0177,-4.0315,-4.0323,-4.033,-4.0286,-4.0319,-4.0302,-4.0286,-4.042,-4.0301,-4.0375,-4.0494,-4.0507,-4.053,-4.0844,-4.0752,-4.0866,-4.1061,-4.1168,-4.1207,-4.1241,-4.1356,-4.1398,-4.089,-4.0891,-4.0891,0,-3.9869,-3.9855,-3.9913,-3.9971,-3.9975,-4.0063,-3.988,-3.998,-4.0045,-3.9882,-4.0019,-4.0004,-4.0015,-4.0191,-4.0266,-4.0189,-4.0567,-4.0434,-4.0459,-4.0467,-4.0566,-4.0613,-4.0655,-4.0107,-4.0104,-4.0102,0,0,-3.9722,-3.9804,-3.9761,-3.9927,-3.9937,-3.9873,-3.9912,-3.985,-3.9861,-3.9867,-3.9847,-3.9863,-3.993,-3.9978,-4.0038,-4.024,-4.0237,-4.034,-4.0377,-4.0408,-4.0433,-4.0541,-4.0587,-4.0093,-4.0092,-4.0092,0,0,-3.9652,-3.9609,-3.9539,-3.9721,-3.9736,-3.9706,-3.981,-3.9724,-3.977,-3.9749,-3.9648,-3.9648,-3.9811,-3.9802,-3.9687,-3.9982,-3.9828,-3.9854,-3.9982,-4.0028,-4.0064,-4.0065,-3.95,0,0,0,0,0,-3.943,-3.9614,-3.9551,-3.957,-3.9644,-3.9741,-3.9749,-3.967,-3.9563,-3.9648,-3.9617,-3.9513,-3.9719,-3.9615,-3.9637,-3.9767,-3.9974,-3.9995,-4.0015,-4.0228,-4.0277,-4.0317,0,0,0,0,0,0,-3.9437,-3.9461,-3.9545,-3.9525,-3.954,-3.9733,-3.9535,-3.9518,-3.9552,-3.953,-3.9522,-3.9513,-3.9448,-3.9599,-3.9619,-3.9745,-3.9493,-3.9982,-4.0,-4.0016,-4.0245,-4.0284,-4.0318,0,0,0,0,0,-3.9442,-3.9461,-3.96,-3.9521,-3.9535,-3.9473,-3.9527,-3.9511,-3.9537,-3.9489,-3.9476,-3.9474,-3.9454,-3.9466,-3.961,-3.9737,-3.9478,-3.9486,-3.9994,-4.0008,-4.0021,-4.0264,0,0,0,0,0,0,-3.9446,-3.9448,-3.9601,-3.9602,-3.9446,-3.9461,-3.9461,-3.9507,-3.9491,-3.9481,-3.9435,-3.9418,-3.946,-3.9468,-3.9478,-3.9739,-3.9466,-3.9474,-3.9479,-4.0005,-4.0016,-4.0026,0,0,0,0,0,0,-3.9437,-3.9451,-3.9601,-3.951,-3.95,-3.945,-3.945,-3.9561,-3.9493,-3.9438,-3.9423,-3.9428,-3.9445,-3.9471,-3.9478,-3.9655,-3.9457,-3.9465,-3.947,-3.9474,-4.0014,-4.0022,0,0,0,0,0,0,-3.9441,-3.9453,-3.9509,-3.9502,-3.9493,-3.95,-3.9547,-3.9627,-3.9415,-3.9441,-3.9393,-3.9384,-3.9452,-3.9457,-3.9479,-3.9654,-3.9655,-3.9457,-3.9462,-3.9466,-3.9469,0,0,0,0,0,0,0,-3.9445,-3.9388,-3.9594,-3.9495,-3.9486,-3.9613,-3.9614,-3.9614,-3.9412,-3.9404,-3.9395,-3.9388,-3.9412,-3.9421,-3.943,-3.9653,0,0,-3.9456,-3.946,0,0,0,0,0,0,0,0,-3.9381,-3.9386,-3.9594,-3.9594,-3.9594,-3.9613,-3.9614,-3.9614,-3.9411,-3.9404,-3.9397,-3.9391,-3.9415,-3.9422,-3.9429,0,0,0,0,0,0,0,0,0,0,0,0,0,0,0,-3.9594,-3.9594,0,-3.9613,-3.9614,-3.9614,-3.941,-3.9404,-3.9399,-3.9393,-3.9417,-3.9422,-3.9428,0,0,0,0,0,0,0,0,0,0,0,0,0,0,0,0,0,0,0,0,0,0,0,0,0,0,0,0,0,0,0,0,0,0,0,0,0,0,0,0,0,0,0,0,0,0,0,0,0,0,0,0,0,0,0,0,0,0,0,0,0,0,0,0,0,0,0,0,0]}],[{"header":{"parameterUnit":"kt","parameterCategory":2,"dx":1,"dy":1,"la1":30.253999710083008,"la2":30.299108505249023,"lo1":-89.0895004272461,"lo2":-89.04439544677734,"nx":28,"ny":28,"refTime":"2022-10-08T21:00:00:Z","depth":0,"parameterNumber":2,"parameterNumberName":"V-component_of_WINDS"},"data":[-8.1123,-8.1306,-8.1313,-8.1524,-8.1564,-8.1708,-8.1761,-8.1829,-8.1884,-8.2054,-8.2151,-8.2173,-8.2227,-8.2342,-8.2446,-8.2452,-8.2496,-8.2557,-8.2554,-8.228,-8.2242,-8.2206,-8.2165,-8.2566,-8.2567,-8.2837,-8.284,-8.2842,-8.0922,-8.0965,-8.1079,-8.1193,-8.1289,-8.1235,-8.1319,-8.1403,-8.1532,-8.1601,-8.1697,-8.1845,-8.1961,-8.1995,-8.2107,-8.2189,-8.2168,-8.2219,-8.2213,-8.2222,-8.1929,-8.1885,-8.2234,-8.2234,-8.2233,-8.2233,-8.2233,-8.2233,-8.0556,-8.0666,-8.0739,-8.0862,-8.092,-8.0996,-8.11,-8.1126,-8.1234,-8.1355,-8.1338,-8.1482,-8.155,-8.1685,-8.1731,-8.1841,-8.1785,-8.1841,-8.1855,-8.187,-8.1886,-8.1495,-8.186,-8.1859,-8.1858,-8.1857,-8.1856,0,-8.029,-8.0289,-8.0398,-8.051,-8.0599,-8.0685,-8.0764,-8.0828,-8.0821,-8.0911,-8.1041,-8.1116,-8.1262,-8.1382,-8.1487,-8.1522,-8.1472,-8.1466,-8.1505,-8.1516,-8.1513,-8.1517,-8.104,-8.1456,-8.1452,-8.145,-8.1448,-8.1447,-7.9922,-8.0049,-8.0128,-8.0204,-8.0248,-8.037,-8.0443,-8.0428,-8.0506,-8.0599,-8.0694,-8.0815,-8.0911,-8.1115,-8.1139,-8.1247,-8.1223,-8.1382,-8.1239,-8.1245,-8.1226,-8.1219,-8.1232,-8.141,-8.1415,-8.1419,-8.1422,0,-7.9714,-7.9724,-7.9921,-7.9986,-8.0005,-8.0138,-8.0191,-8.0298,-8.031,-8.0459,-8.0492,-8.051,-8.0636,-8.0635,-8.0777,-8.0772,-8.0986,-8.096,-8.0963,-8.0958,-8.11,-8.1087,-8.1561,-8.1622,-8.1205,-8.1209,-8.1212,0,-7.9404,-7.957,-7.9574,-7.9688,-7.9872,-7.9853,-8.0034,-8.0063,-8.0122,-8.0238,-8.0182,-8.0292,-8.0273,-8.0382,-8.0375,-8.0549,-8.0576,-8.0582,-8.0579,-8.0588,-8.0588,-8.0628,-8.0609,-8.0565,-8.0562,-8.056,-8.0558,0,-7.9078,-7.9274,-7.946,-7.9506,-7.959,-7.9677,-7.9716,-7.9781,-7.9852,-7.9944,-7.9989,-8.0096,-8.0155,-8.0237,-8.0228,-8.0131,-8.0441,-8.0306,-8.0448,-8.0448,-8.0517,-8.0513,-8.0932,-8.0555,-8.0555,-8.0554,-8.0553,0,-7.8828,-7.8925,-7.9193,-7.9261,-7.9313,-7.9435,-7.954,-7.9644,-7.9717,-7.9721,-7.9793,-7.9754,-7.9907,-7.9773,-7.9983,-7.986,-7.992,-7.994,-7.995,-7.9964,-7.9814,-8.0052,-8.0451,-8.0493,-7.9976,-7.9971,-7.9967,0,-7.8452,-7.8725,-7.8711,-7.8966,-7.9091,-7.9021,-7.9154,-7.9221,-7.9238,-7.9345,-7.9362,-7.9483,-7.9383,-7.9421,-7.9525,-7.9547,-7.9706,-7.9525,-7.9676,-7.9681,-7.966,-8.0028,-8.0088,-8.0364,-7.9905,-7.9912,-7.9916,0,-7.8162,-7.8265,-7.8312,-7.8363,-7.845,-7.8555,-7.8708,-7.8826,-7.8898,-7.8978,-7.9106,-7.9276,-7.9207,-7.927,-7.925,-7.9358,-7.9597,-7.9269,-7.927,-7.9329,-7.9874,-7.993,-7.9977,-7.9559,-7.9567,-7.9573,-7.9867,0,-7.7783,-7.7921,-7.8047,-7.8162,-7.8243,-7.8402,-7.8404,-7.8487,-7.8461,-7.8475,-7.8662,-7.8715,-7.8832,-7.8884,-7.8858,-7.9107,-7.9064,-7.899,-7.8859,-7.91,-7.9197,-7.9237,-7.8715,-7.8711,-7.8708,-7.8705,0,0,-7.7421,-7.7619,-7.7598,-7.7749,-7.7815,-7.774,-7.7909,-7.7965,-7.8079,-7.8126,-7.8053,-7.8301,-7.8347,-7.8573,-7.8649,-7.8696,-7.874,-7.8656,-7.8986,-7.9017,-7.9046,-7.915,-7.9191,-7.8699,-7.8698,-7.8697,-7.8696,0,-7.7284,-7.7337,-7.7507,-7.7564,-7.7648,-7.7655,-7.7696,-7.7765,-7.7782,-7.7965,-7.7898,-7.801,-7.8208,-7.8266,-7.8321,-7.8628,-7.857,-7.8664,-7.883,-7.8953,-7.8989,-7.902,-7.9129,-7.9169,-7.8688,-7.8688,-7.8689,0,-7.6998,-7.7051,-7.7133,-7.7283,-7.7337,-7.7467,-7.7331,-7.7475,-7.7571,-7.7478,-7.7661,-7.769,-7.7767,-7.7981,-7.8077,-7.8013,-7.8416,-7.8289,-7.8309,-7.832,-7.8439,-7.8482,-7.852,-7.8017,-7.8015,-7.8013,0,0,-7.6879,-7.7007,-7.7057,-7.7253,-7.7292,-7.7305,-7.7374,-7.7355,-7.7428,-7.7457,-7.7494,-7.7565,-7.7679,-7.7755,-7.7863,-7.8098,-7.8112,-7.8206,-7.8238,-7.8264,-7.8288,-7.8414,-7.8457,-7.8004,-7.8004,-7.8003,0,0,-7.6821,-7.6888,-7.6849,-7.7077,-7.715,-7.7211,-7.733,-7.7282,-7.738,-7.7362,-7.7333,-7.7351,-7.7551,-7.7582,-7.7465,-7.7816,-7.7687,-7.7715,-7.7789,-7.7829,-7.786,-7.7848,-7.7331,0,0,0,0,0,-7.6681,-7.688,-7.6844,-7.6883,-7.707,-7.7231,-7.7255,-7.7238,-7.7147,-7.7241,-7.7264,-7.7197,-7.7513,-7.7408,-7.7446,-7.7576,-7.7891,-7.7911,-7.793,-7.8081,-7.8122,-7.8158,0,0,0,0,0,0,-7.6696,-7.6743,-7.6839,-7.6909,-7.6951,-7.7224,-7.7066,-7.7067,-7.7136,-7.7121,-7.7195,-7.72,-7.7186,-7.7388,-7.7422,-7.7547,-7.732,-7.7899,-7.7916,-7.7931,-7.8095,-7.8129,-7.8158,0,0,0,0,0,-7.6708,-7.6746,-7.7052,-7.6906,-7.6942,-7.6967,-7.7059,-7.7058,-7.7111,-7.7147,-7.7149,-7.7092,-7.719,-7.7217,-7.7408,-7.7532,-7.7296,-7.7309,-7.791,-7.7923,-7.7935,-7.8112,0,0,0,0,0,0,-7.6717,-7.6746,-7.7059,-7.7069,-7.683,-7.6951,-7.697,-7.7051,-7.7132,-7.7136,-7.7041,-7.7028,-7.7196,-7.7216,-7.7237,-7.7528,-7.7277,-7.729,-7.7298,-7.792,-7.7931,-7.794,0,0,0,0,0,0,-7.6725,-7.6755,-7.7064,-7.697,-7.6969,-7.6937,-7.6953,-7.7112,-7.7133,-7.7021,-7.7013,-7.7035,-7.7163,-7.7216,-7.7232,-7.748,-7.7262,-7.7275,-7.7283,-7.7289,-7.7929,-7.7937,0,0,0,0,0,0,-7.6737,-7.6763,-7.6967,-7.6966,-7.6965,-7.708,-7.7076,-7.7268,-7.7055,-7.7018,-7.7035,-7.7026,-7.7165,-7.718,-7.7229,-7.7471,-7.7477,-7.7263,-7.7271,-7.7277,-7.7281,0,0,0,0,0,0,0,-7.6747,-7.6579,-7.6998,-7.6964,-7.6962,-7.7165,-7.7168,-7.7171,-7.7053,-7.7045,-7.7037,-7.703,-7.7192,-7.7205,-7.7219,-7.7463,0,0,-7.7261,-7.7267,0,0,0,0,0,0,0,0,-7.6568,-7.6577,-7.6999,-7.7001,-7.7003,-7.7166,-7.7168,-7.717,-7.7052,-7.7045,-7.7039,-7.7033,-7.7195,-7.7206,-7.7217,0,0,0,0,0,0,0,0,0,0,0,0,0,0,0,-7.6999,-7.7001,0,-7.7166,-7.7168,-7.717,-7.7051,-7.7046,-7.704,-7.7035,-7.7198,-7.7207,-7.7217,0,0,0,0,0,0,0,0,0,0,0,0,0,0,0,0,0,0,0,0,0,0,0,0,0,0,0,0,0,0,0,0,0,0,0,0,0,0,0,0,0,0,0,0,0,0,0,0,0,0,0,0,0,0,0,0,0,0,0,0,0,0,0,0,0,0,0,0,0]}]]]